Regional Weather Roundup
Issued by NWS

Home | Current Version | Previous Version | Graphics & Text | Print | Product List | Glossary On
Versions: 1 2 3 4 5 6 7 8 9 10 11 12 13 14 15 16 17 18 19 20 21 22 23 24 25 26 27 28 29 30 31 32 33 34 35 36 37 38 39 40 41 42 43 44 45 46 47 48 49 50
000
ASUS44 KMEG 281610
RWRTN
TENNESSEE HOURLY STATE WEATHER ROUNDUP
NATIONAL WEATHER SERVICE MEMPHIS TN
1100 AM CDT SAT MAY 28 2016

TNZ002-004-019-021-049-052-054-088>092-281700-
WEST TENNESSEE

CITY           SKY/WX    TMP DP  RH WIND       PRES   REMARKS
MEMPHIS INTL   PTSUNNY   80  69  69 VRB7      30.02R
NWS MEMPHIS      N/A     81 N/A N/A MISG        N/A
JACKSON        CLOUDY    76  66  71 S9        30.04R
DYERSBURG      PTSUNNY   79  68  69 SW10      30.02R
UNION CITY     MOSUNNY   79  70  73 S12       30.01S
PARIS          SUNNY     77  64  65 S12       30.05R
LEXINGTON      SUNNY     82  66  57 S7        30.05R
$$

TNZ008-025-027-028-033-062-065-066-281700-
NORTH MIDDLE TENNESSEE

CITY           SKY/WX    TMP DP  RH WIND       PRES   REMARKS
NASHVILLE      CLOUDY    82  63  52 S14       30.10S
CLARKSVILLE    CLOUDY    82  64  54 S12       30.06S
SMYRNA         CLOUDY    80  65  60 SE9       30.11S
COOKEVILLE     SUNNY     82  63  51 SW12      30.14R
CROSSVILLE     SUNNY     77  59  53 S8        30.20S
$$

TNZ061-075-076-078-094-096-097-281700-
SOUTH MIDDLE TENNESSEE

CITY           SKY/WX    TMP DP  RH WIND       PRES   REMARKS
FAYETTEVILLE   SUNNY     77  63  61 S7        30.13S
TULLAHOMA      SUNNY     73  66  78 S6        30.15S
WINCHESTER     SUNNY     75  64  69 S6        30.14F
MCMINNVILLE    SUNNY     77  64  65 SW3       30.14F
COLUMBIA       SUNNY     82  68  61 S8        30.08S
SHELBYVILLE    MOSUNNY   81  66  61 SE8       30.13S
$$

TNZ017-018-042-046-047-281700-
NORTHEAST TENNESSEE

CITY           SKY/WX    TMP DP  RH WIND       PRES   REMARKS
TRI CITIES     MOSUNNY   81  60  48 CALM      30.20S
$$

TNZ012-013-036-069-073-074-281700-
CENTRAL EAST TENNESSEE

CITY           SKY/WX    TMP DP  RH WIND       PRES   REMARKS
KNOXVILLE      PTSUNNY   79  66  64 NW8       30.17S
OAK RIDGE      CLOUDY    77  61  57 VRB3      30.20R
GATLINBURG     PTSUNNY   79  61  53 NW6       30.18R
$$

TNZ083-085-099-281700-
SOUTHEAST TENNESSEE

CITY           SKY/WX    TMP DP  RH WIND       PRES   REMARKS
CHATTANOOGA    PTSUNNY   82  61  48 S8        30.15F
$$

SKY/WX REPORTED AS FAIR MEANS FEW OR NO CLOUDS BELOW
12 THOUSAND FEET.





USA.gov is the U.S. government's official web portal to all federal, state and local government web resources and services.